(479128) = 2008 CW187 = 2013 BH28

Discovered at Kitt Peak on 2006-11-17 by Spacewatch.

Orbit

Orbit type: Main Belt

Note: WebGL enabled browser required.

epoch2024-03-31.0
epoch JD2460400.5
perihelion date2024-03-06.95165
perihelion JD2460376.45165
argument of perihelion (°)164.04970
ascending node (°)39.38368
inclination (°)10.28017
eccentricity0.1312184
perihelion distance (AU)2.5896019
Tisserand w.r.t. Jupiter3.2
ΔV w.r.t. Earth (km/sec)10.6
semimajor axis (AU)2.9807282
mean anomaly (°)4.60581
mean daily motion (°/day)0.19152270
aphelion distance (AU)3.372
period (years)5.15
P-vector [x]-0.91472398
P-vector [y]-0.38750263
P-vector [z]-0.11455024
Q-vector [x]0.38788876
Q-vector [y]-0.76261043
Q-vector [z]-0.51765591
absolute magnitude16.33
phase slope0.15
uncertainty0
referenceMPEC 2024-F07
observations used241
oppositions13
arc length (days)6329
first opposition used2006
last opposition used2024
residual rms (arc-secs)0.79
perturbers coarse indicatorM-v
perturbers precise indicator003Ek
first observation date used2006-11-17.0
last observation date used2024-03-16.0
computer nameMPCLINUX
JD of orbit computation2457700.245872
perihelion JD uncertainty (days)2.6862E-04
argument of perihelion uncertainty (°)5.6413E-05
ascending node uncertainty (°)3.9982E-05
inclination uncertainty (°)8.5028E-06
eccentricity uncertainty 1.2048E-07
perihelion distance uncertainty (AU)3.5297E-07
Minimum Orbit Intersection Distances (in AU)
for orbit epoch: 2460400.5, reference: E2024-G95
Mercury2.1544
Venus1.86779
Earth1.5873
Mars0.96969
Jupiter1.58612
Saturn5.83792
Uranus15.7734
Neptune26.4541

Observations

247 total observations over interval: 2006 11 17.22568 – 2024 03 16.574269
These data are available for download (format description).

Date (UT) J2000 RA J2000 Dec Magn Location Ref
2006 11 17.22568 04 20 46.20 +27 36 13.4 21.1 V 691 – Steward Observatory, Kitt Peak-Spacewatch MPS 460634
2006 11 17.24300 04 20 45.22 +27 36 14.6 20.9 V 691 – Steward Observatory, Kitt Peak-Spacewatch MPS 460634
2006 11 17.26033 04 20 44.23 +27 36 14.6 21.5 V 691 – Steward Observatory, Kitt Peak-Spacewatch MPS 460634
2006 11 25.21224 04 13 06.11 +27 39 31.5   691 – Steward Observatory, Kitt Peak-Spacewatch MPS 460634
2006 11 25.22959 04 13 05.10 +27 39 31.9   691 – Steward Observatory, Kitt Peak-Spacewatch MPS 460634
2006 11 25.24694 04 13 04.10 +27 39 31.4   691 – Steward Observatory, Kitt Peak-Spacewatch MPS 460634
2008 02 03.29309 11 02 58.88 +21 56 19.4 20.4 V 703 – Catalina Sky Survey MPS 243608
2008 02 03.30029 11 02 58.48 +21 56 20.7 20.9 V 703 – Catalina Sky Survey MPS 243608
2008 02 03.30754 11 02 58.23 +21 56 22.9 20.6 V 703 – Catalina Sky Survey MPS 243608
2008 02 03.31475 11 02 57.94 +21 56 24.5 19.6 V 703 – Catalina Sky Survey MPS 243608
2008 02 14.31300 10 55 19.45 +22 53 29.2 20.3 V 703 – Catalina Sky Survey MPS 243608
2008 02 14.31963 10 55 19.16 +22 53 30.4 21.3 V 703 – Catalina Sky Survey MPS 243608
2008 02 14.32628 10 55 18.91 +22 53 32.9 20.1 V 703 – Catalina Sky Survey MPS 243608
2008 02 14.33292 10 55 18.48 +22 53 34.3 20.8 V 703 – Catalina Sky Survey MPS 243608
2010 06 15.732785 23 55 46.010 -11 02 33.00   C51 – WISE MPS 904528
2010 06 15.997392 23 55 55.934 -11 01 58.84   C51 – WISE MPS 904528
2010 06 16.129696 23 56 01.099 -11 01 44.33   C51 – WISE MPS 904528
2010 06 16.526479 23 56 16.138 -11 00 52.56   C51 – WISE MPS 904528
2010 06 16.724999 23 56 23.561 -11 00 30.02   C51 – WISE MPS 904528
2010 06 16.989606 23 56 33.595 -10 59 58.06   C51 – WISE MPS 904528
2011 10 24.54802 03 46 20.249 +22 49 40.62 21.5 w F51 – Pan-STARRS 1, Haleakala MPS 460634
2011 10 24.56326 03 46 19.568 +22 49 41.12 21.6 w F51 – Pan-STARRS 1, Haleakala MPS 460634
2011 10 24.57843 03 46 18.931 +22 49 41.63 21.8 w F51 – Pan-STARRS 1, Haleakala MPS 460634
2011 10 24.59371 03 46 18.255 +22 49 42.15 21.5 w F51 – Pan-STARRS 1, Haleakala MPS 460634
2011 11 30.20779 03 14 16.54 +22 29 51.2 20.5 V G96 – Mt. Lemmon Survey MPS 460634
2011 11 30.22058 03 14 15.90 +22 29 50.3 20.9 V G96 – Mt. Lemmon Survey MPS 460634
2011 11 30.22704 03 14 15.50 +22 29 49.9 21.0 V G96 – Mt. Lemmon Survey MPS 460634
2013 01 16.19901 09 48 01.41 +29 29 34.8 19.5 R J04 – ESA Optical Ground Station, Tenerife MPS 452439
2013 01 16.21012 09 48 00.95 +29 29 39.1 19.9 R J04 – ESA Optical Ground Station, Tenerife MPS 452439
2013 01 16.22123 09 48 00.51 +29 29 42.6 19.9 R J04 – ESA Optical Ground Station, Tenerife MPS 452439
2013 01 16.23234 09 48 00.07 +29 29 47.1 20.6 R J04 – ESA Optical Ground Station, Tenerife MPS 452439
2013 01 16.46312 09 47 51.00 +29 31 08.3 20.2 V 703 – Catalina Sky Survey MPS 457768
2013 01 16.46914 09 47 50.85 +29 31 11.8 21.2 V 703 – Catalina Sky Survey MPS 457768
2013 01 16.47521 09 47 50.49 +29 31 12.9 20.6 V 703 – Catalina Sky Survey MPS 457768
2013 01 16.48132 09 47 50.13 +29 31 15.1 20.7 V 703 – Catalina Sky Survey MPS 457768
2013 01 21.46271 09 44 18.20 +30 00 29.8 20.3 V G96 – Mt. Lemmon Survey MPS 452439
2013 01 21.46786 09 44 17.91 +30 00 31.3 20.3 V G96 – Mt. Lemmon Survey MPS 452439
2013 01 21.47310 09 44 17.70 +30 00 33.1 20.4 V G96 – Mt. Lemmon Survey MPS 452439
2013 01 21.47833 09 44 17.44 +30 00 34.7 20.5 V G96 – Mt. Lemmon Survey MPS 452439
2013 02 08.35747 09 28 17.268 +31 26 36.08 20.3 g F51 – Pan-STARRS 1, Haleakala MPS 460634
2013 02 08.36951 09 28 16.552 +31 26 38.73 20.4 g F51 – Pan-STARRS 1, Haleakala MPS 460634
2013 02 08.38285 09 28 15.736 +31 26 41.78 20.1 r F51 – Pan-STARRS 1, Haleakala MPS 460634
2013 02 08.39455 09 28 15.031 +31 26 44.05 19.9 r F51 – Pan-STARRS 1, Haleakala MPS 460634
2015 08 13.52915 23 21 19.204 -18 21 58.19 20.7 w F51 – Pan-STARRS 1, Haleakala MPS 619831
2015 08 13.53947 23 21 18.804 -18 22 01.16 20.8 w F51 – Pan-STARRS 1, Haleakala MPS 619831
2015 08 13.54975 23 21 18.383 -18 22 03.89 21.0 w F51 – Pan-STARRS 1, Haleakala MPS 619831
2015 08 13.56004 23 21 17.980 -18 22 06.67 21.1 w F51 – Pan-STARRS 1, Haleakala MPS 619831
2016 10 07.46458 03 12 31.212 +18 07 33.81 21.3 w F51 – Pan-STARRS 1, Haleakala MPS 734398
2016 10 07.47761 03 12 30.777 +18 07 33.95 21.4 w F51 – Pan-STARRS 1, Haleakala MPS 734398
2016 10 07.49068 03 12 30.333 +18 07 34.02 21.4 w F51 – Pan-STARRS 1, Haleakala MPS 734398
2016 10 21.40443 03 03 05.30 +18 02 57.6 20.9 V G96 – Mt. Lemmon Survey MPS 737580
2016 10 21.41007 03 03 05.05 +18 02 57.7 20.8 V G96 – Mt. Lemmon Survey MPS 737580
2016 10 21.41439 03 03 04.90 +18 02 56.2 22.3 V G96 – Mt. Lemmon Survey MPS 737580
2016 10 21.42013 03 03 04.52 +18 02 56.3 21.3 V G96 – Mt. Lemmon Survey MPS 737580
2016 10 25.52472 02 59 44.994 +17 59 15.45 20.9 w F51 – Pan-STARRS 1, Haleakala MPS 737580
2016 10 25.53863 02 59 44.274 +17 59 14.59 21.1 w F51 – Pan-STARRS 1, Haleakala MPS 737580
2016 10 25.55268 02 59 43.563 +17 59 13.50 21.0 w F51 – Pan-STARRS 1, Haleakala MPS 737580
2016 10 25.55689 02 59 43.337 +17 59 13.59 21.1 w F51 – Pan-STARRS 1, Haleakala MPS 737580
2016 10 25.57047 02 59 42.650 +17 59 12.27 21.0 w F51 – Pan-STARRS 1, Haleakala MPS 737580
2016 10 25.58406 02 59 41.946 +17 59 11.28 21.0 w F51 – Pan-STARRS 1, Haleakala MPS 737580
2016 11 07.34076 02 48 30.55 +17 42 21.3 20.6 V G96 – Mt. Lemmon Survey MPS 742246
2016 11 07.34693 02 48 30.18 +17 42 21.3 21.3 V G96 – Mt. Lemmon Survey MPS 742246
2016 11 07.35398 02 48 29.87 +17 42 19.9 20.4 V G96 – Mt. Lemmon Survey MPS 742246
2016 11 07.35832 02 48 29.60 +17 42 20.0 20.3 V G96 – Mt. Lemmon Survey MPS 742246
2016 11 18.25936 02 38 55.55 +17 24 35.4 20.6 V G96 – Mt. Lemmon Survey MPS 747436
2016 11 18.26509 02 38 55.22 +17 24 35.2 21.2 V G96 – Mt. Lemmon Survey MPS 747436
2016 11 18.27053 02 38 54.96 +17 24 33.9 20.3 V G96 – Mt. Lemmon Survey MPS 747436
2016 11 18.27506 02 38 54.69 +17 24 33.8 20.7 V G96 – Mt. Lemmon Survey MPS 747436
2017 10 28.61105 08 33 25.686 +29 02 58.41 21.9 w F51 – Pan-STARRS 1, Haleakala MPS 834233
2017 10 28.61869 08 33 26.077 +29 02 59.11 21.8 w F51 – Pan-STARRS 1, Haleakala MPS 834233
2017 10 28.62636 08 33 26.471 +29 02 59.41 21.9 w F51 – Pan-STARRS 1, Haleakala MPS 834233
2017 10 28.63404 08 33 26.866 +29 03 00.07 22.1 w F51 – Pan-STARRS 1, Haleakala MPS 834233
2017 11 21.53840 08 49 07.508 +29 53 24.96 21.5 w F51 – Pan-STARRS 1, Haleakala MPS 842859
2017 11 21.54987 08 49 07.757 +29 53 27.24 21.7 w F51 – Pan-STARRS 1, Haleakala MPS 842859
2017 11 21.56134 08 49 08.023 +29 53 29.71 21.3 w F51 – Pan-STARRS 1, Haleakala MPS 842859
2017 11 21.57283 08 49 08.274 +29 53 32.13 21.4 w F51 – Pan-STARRS 1, Haleakala MPS 842859
2017 12 13.47355 08 51 47.240 +31 29 53.83 21.0 w F51 – Pan-STARRS 1, Haleakala MPS 849072
2017 12 13.48550 08 51 47.097 +31 29 57.76 21.1 w F51 – Pan-STARRS 1, Haleakala MPS 849072
2017 12 13.49742 08 51 46.955 +31 30 01.76 21.1 w F51 – Pan-STARRS 1, Haleakala MPS 849072
2017 12 13.50940 08 51 46.808 +31 30 05.68 20.9 w F51 – Pan-STARRS 1, Haleakala MPS 849072
2017 12 29.28633 08 45 25.37 +33 01 12.1 21.1 G G96 – Mt. Lemmon Survey MPS 854222
2017 12 29.29158 08 45 25.16 +33 01 14.4 21.1 G G96 – Mt. Lemmon Survey MPS 854222
2017 12 29.29683 08 45 24.96 +33 01 16.0 20.8 G G96 – Mt. Lemmon Survey MPS 854222
2017 12 29.30207 08 45 24.75 +33 01 18.2 20.9 G G96 – Mt. Lemmon Survey MPS 854222
2018 01 09.38838 08 37 05.55 +34 04 44.9 20.4 G G96 – Mt. Lemmon Survey MPS 857668
2018 01 09.39357 08 37 05.27 +34 04 46.8 20.4 G G96 – Mt. Lemmon Survey MPS 857668
2018 01 09.40396 08 37 04.68 +34 04 49.8 19.9 G G96 – Mt. Lemmon Survey MPS 857668
2018 01 11.56113 08 35 09.732 +34 16 12.66 20.4 w F51 – Pan-STARRS 1, Haleakala MPS 857668
2018 01 11.57278 08 35 09.075 +34 16 16.14 20.4 w F51 – Pan-STARRS 1, Haleakala MPS 857668
2018 01 11.58442 08 35 08.424 +34 16 19.68 20.4 w F51 – Pan-STARRS 1, Haleakala MPS 857668
2018 01 11.59605 08 35 07.773 +34 16 23.14 20.4 w F51 – Pan-STARRS 1, Haleakala MPS 857668
2018 01 13.40470 08 33 28.166 +34 25 32.52 20.5 w F51 – Pan-STARRS 1, Haleakala MPS 861660
2018 01 13.41641 08 33 27.490 +34 25 36.14 20.3 w F51 – Pan-STARRS 1, Haleakala MPS 861660
